THOR ABLESTAR DEB, 1435

Orbit data source: Space-Track

THOR ABLESTAR DEB, 1435 is space debris in LEO originally from a launch on Thu, 24 Jun 1965 UTC launched from the Air Force Western Test Range (AFWTR). Debris objects in space refer to the collection of defunct objects orbiting the Earth. Examples of debris include non-operational satellites, rocket bodies, and fragments generated from explosions, collisions, or faulty payload assembly.

Loading next visibility...
Identifier
1435, 1965-048D
Orbit
LEO
Country
Flag of USUS
Related business
Manufacturer
Unknown
Mission
Spacecraft
Bus & Motor
Unknown
Mass
Unknown
Launch date (UTC)
1965-06-24 (61 years ago)
Launch vehicle
Unknown
Launch site
Air Force Western Test Range (AFWTR)
Object type
Payload
Rocket body
Debris
Shape & HBR
Unknown shape, 0.1 m
Radar Cross Section
Small (<0.1 m²)

Expand to show TLE details & history
Last TLE update: 11 hours ago

TLE from 11 hours ago
0 THOR ABLESTAR DEB
1  1435U 65048D   26035.48157701  .00000793  00000-0  83632-3 0  9999
2  1435  89.8839 291.6985 0058741 355.8597 128.9757 13.73184576  8672
Epoch: 2026-02-04T11:33Z
TLE epoch observation values (Epoch: 2026-02-04T11:33:28.253Z)
Latitude
54.73822°
Longitude
163.51989°
Altitude
1,024.666 km
Speed
7.331 km/s
True Right ascension
07h 26m 08s
True Declination
54° 34' 54"
Sunlit
Object was in full shadow at epoch
Visualization orbit readout
Latitude
Unknown
Longitude
Unknown
Altitude
Unknown
Speed
Unknown
Apparent Right ascension
Unknown
Apparent Declination
Unknown
Sunlit
N/A
Visualization observer readout
Local Sidereal Time
00:14:48
Azimuth
Unknown
Elevation
Unknown
Doppler factor
Unknown
Orbital elements
Apogee altitude
1,028.429 km
Perigee altitude
941.923 km
Semi-major axis
7,363.313 km
Eccentricity
0.00587
Inclination
89.8839°
RAAN
291.6985°
Arg. of periapsis
355.8597°
True anomaly
129.49658°
Mean anomaly
128.9757°
Eccentric anomaly
129.23638°
Mean motion
3.43505 °/min
Orbital period
104.8 mins
BSTAR
0.00083632
Loading maneuver chart data...
Computing Atmospheric mass density...

Documentation

Showing up to 5 results
|